Preview of NWS' New Version of Forecast
This preview is not operational and should not be used for support decisions.

Regional Weather Roundup (RWR)

Issued by National Weather Service (NWS)

                            
000
ASUS44 KJAN 200910
RWRMS 

MISSISSIPPI HOURLY WEATHER ROUNDUP
NATIONAL WEATHER SERVICE JACKSON MS
400 AM CDT FRI SEP 20 2019

NOTE: "FAIR: INDICATES FEW OR NO CLOUDS BELOW 12,000 FEET WITH NO
SIGNIFICANT WEATHER AND/OR OBSTRUCTIONS TO VISIBILITY.

MSZ001>002-007>008-010>013-018>021-025>028-034>036-201000-
NORTHWEST MISSISSIPPI
  
CITY           SKY/WX    TMP DP  RH WIND       PRES   REMARKS
BATESVILLE     PTSUNNY   72  72 100 CALM      30.08R                  
CLARKSDALE       N/A     73  73 100 CALM      30.06S                  
CLEVELAND      FAIR      74  73  96 SE7       30.05S                  
GREENWOOD      CLOUDY    77  69  76 E5        30.07R                  
GREENVILLE     FAIR      73  70  90 SE7       30.05R                  
OLIVE BRANCH     N/A     75  72  88 SE8       30.08S                  
OXFORD         MOCLDY    73  70  88 SE8       30.11S                  
TUNICA           N/A     73  70  88 SE5       30.07S                  
WINONA         FAIR      72  70  93 CALM      30.09R                  
$$

MSZ003>006-009-014>017-022>024-029>033-037>039-201000-
NORTHEAST MISSISSIPPI
  
CITY           SKY/WX    TMP DP  RH WIND       PRES   REMARKS
ABERDEEN       FAIR      72  55  56 VRB6      30.14R                  
COLUMBUS AFB   FAIR      71  65  82 SE7       30.12R                  
CORINTH        FAIR      73  64  73 S5        30.13R                  
GOLDN TRIANGLE FAIR      74  67  78 SE12      30.12R                  
STARKVILLE       N/A     72  68  88 SE5       30.12S                  
TUPELO         CLOUDY    77  65  66 SE7       30.12R                  
$$

MSZ040-058-201000-
CENTRAL MISSISSIPPI
  
CITY           SKY/WX    TMP DP  RH WIND       PRES   REMARKS
JACKSON INTL   FAIR      73  69  87 SE6       30.07R                  
JACKSON HAWKNS FAIR      74  70  87 SE6       30.07S                  
MADISON        FAIR      72  72 100 CALM      30.08S                  
MERIDIAN KEY   FAIR      75  70  84 E5        30.11R                  
MERIDIAN NAS   FAIR      72  70  93 E3        30.12R                  
RAYMOND        FAIR      75  75 100 E7        30.05S                  
VICKSBURG VKS  SUNNY     75  75 100 CALM      30.05R                  
$$

MSZ059>079-201000-
SOUTH MISSISSIPPI
  
CITY           SKY/WX    TMP DP  RH WIND       PRES   REMARKS
BROOKHAVEN     FAIR      73  72  94 CALM      30.08R                  
HATTIESBURG    FAIR      71  69  93 E3        30.09S                  
LAUREL         SUNNY     71  69  95 E6        30.09S                  
MCCOMB         FAIR      74  71  91 E3        30.06R                  
NATCHEZ        FAIR      75  72  90 MISG      30.04S                  
PINE BELT      FAIR      71  70  96 E5        30.10S                  
$$

MSZ080>082-201000-
COASTAL MISSISSIPPI
  
CITY           SKY/WX    TMP DP  RH WIND       PRES   REMARKS
BILOXI         FAIR      76  73  92 E8        30.06R                  
PASCAGOULA     FAIR      73  70  90 NE3       30.07S                  
GULFPORT       FAIR      76  72  87 E12       30.05R                  
$$

LAZ007>009-015>016-023>026-201000-
NORTHEAST LOUISIANA
  
CITY           SKY/WX    TMP DP  RH WIND       PRES   REMARKS
BASTROP        FAIR      74  72  93 CALM      30.04R                  
TALLULAH/VBURG FAIR      74  70  87 SE3       30.05R                  
VIDALIA        FAIR     N/A N/A N/A CALM      30.03R                  
$$